Погода в Кабу-Фриу

Бразилия     22°52′15″S   42°01′20″W
темп.,
°C
ветер,
м/с
пор.,
м/с
влажн.,
%
обл.,
%
осадки,
мм/ч
давл.,
гПа
погр.,
м
27 февраля, сб
сб2700:00+22зсз2494100 3.3 1015129
03:00+21юз2394100 4.7 101493
06:00+21зюз1195100 0.4 101455
09:00+25всв138299 0.4 1016383
12:00+27всв5773100 0.0 1015687
15:00+27всв5774100 0.0 1013529
18:00+24всв4885100 0.0 1013352
21:00+25св61283100 0.0 1015572
28 февраля, вс
вс2800:00+24св51086100 0.1 1015585
03:00+24св51086100 0.1 1013663
06:00+24св51087100 0.0 1014500
09:00+26св61077100 0.0 1015713
12:00+28св7971100 0.0 1015848
15:00+27всв81075100 0.0 1013604
18:00+25всв71181100 0.0 1013529
21:00+24св51086100 0.0 1014485
1 марта, пн
пн100:00+24св5108899 0.0 1014528
03:00+23св5109079 0.0 1013524
06:00+23св6108644 0.0 1013485
09:00+26св7107856 0.0 1014660
12:00+28всв7973100 0.0 1014692
15:00+28всв8107274 0.0 1012662
18:00+25всв813806 0.0 1012524
21:00+24св612865 0.0 1014637
2 марта, вт
вт200:00+24св71286100 0.0 1014634
03:00+24св6128693 0.0 1013618
06:00+24св7128592 0.0 1014570
09:00+26св7107696 0.0 1015563
12:00+28св896997 0.0 1015560
15:00+28всв8116998 0.0 1013557
18:00+26св9147839 0.0 1012470
21:00+25св8147961 0.0 1015517
3 марта, ср
ср300:00+24св71381100 0.0 1015489
03:00+24св7128475 0.0 1014457
06:00+24св7118776 0.0 1015387
09:00+26ссв467687 0.0 1016330
12:00+31всв446363 0.0 1016743
15:00+28всв467978 2.1 1014207
18:00+25всв4687100 3.1 1013117
21:00+23ссв4692100 7.7 1015171